weather.gov     
National Weather Service

Terminal Aerodrome Forecast
NWS Homepage
This page is being discontinued on March 12, 2014.
The same data is available at this site. Please update your bookmarks.
Thank you, and we apologize for the inconvenience.
Please send an email to SR-SRH.Webmaster@noaa.gov with any concerns.


Current Version
Previous Version:    01  02  03  04  05  06  07  08  09  10  11  12  13  14  15  16  17  18  19  20  21  22  23  24  25  26  27  
[Printable]
903
FTUS46 KLOX 310300 AAC
TAFSBP
TAF AMD
KSBP 310342Z 3104/3124 VRB06KT P6SM SKC
     FM310500 27006KT P6SM BKN011 BKN110
     FM310900 VRB04KT P6SM OVC016
     FM311100 15004KT 5SM -DZ BR BKN011 OVC021
     FM311600 16007KT P6SM OVC021
     FM312000 23010KT P6SM VCSH BKN025 BKN050=


U.S. Dept. of Commerce
NOAA National Weather Service
1325 East West Highway
Silver Spring, MD 20910
E-mail: w-nws.webmaster@noaa.gov
Page last modified: May 16, 2007
NATIONAL WEATHER SERVICE: for Safety, for Work, for Fun - FOR LIFE